Location: アルンシュタイン
(50.0000°N, 10.0000°E)
Time: 19:29:42
(UTC+02:00)

A-11 Canister half - All Passes

Search period start: 11 September 2024 00:00
Search period end: 21 September 2024 00:00
Orbit: 1515 x 1684 km, 47.2° (Epoch: 10 September)

Date Brightness Start Highest point End Pass type
(mag) Time Alt. Az. Time Alt. Az. Time Alt. Az.
11 Sep - 00:27:36 10° W 00:36:50 75° S 00:46:08 10° ESE visible
11 Sep - 02:32:19 10° W 02:41:08 51° SSW 02:50:05 10° SE visible
11 Sep - 04:38:08 10° W 04:44:21 20° SW 04:50:41 10° S visible
11 Sep - 19:57:56 10° SSW 20:05:42 31° SE 20:13:22 10° E visible
11 Sep - 22:00:14 10° WSW 22:09:22 63° SSE 22:18:27 10° E visible
12 Sep - 00:04:38 10° W 00:13:52 76° S 00:23:10 10° E visible
12 Sep - 02:09:20 10° W 02:18:11 53° SSW 02:27:12 10° SE visible
12 Sep - 04:15:00 10° W 04:21:29 22° SW 04:28:06 10° S visible
12 Sep - 19:35:12 10° SSW 19:42:49 29° SE 19:50:19 10° E daylight
12 Sep - 21:37:18 10° SW 21:46:25 61° SSE 21:55:28 10° E visible
12 Sep - 23:41:39 10° W 23:50:54 76° S 00:00:11 10° E visible
13 Sep - 01:46:22 10° W 01:55:16 55° SSW 02:04:17 10° SE visible
13 Sep - 03:51:53 10° W 03:58:37 23° SW 04:05:29 10° S visible
13 Sep - 19:12:29 10° S 19:19:56 27° SE 19:27:17 10° E daylight
13 Sep - 21:14:23 10° SW 21:23:28 60° SSE 21:32:29 10° E visible
13 Sep - 23:18:41 10° W 23:27:56 76° S 23:37:12 10° E visible
14 Sep - 01:23:23 10° W 01:32:20 56° SSW 01:41:23 10° SE visible
14 Sep - 03:28:47 10° W 03:35:45 25° SW 03:42:49 10° S visible
14 Sep - 18:49:47 10° S 18:57:03 26° SE 19:04:13 10° E daylight
14 Sep - 20:51:27 10° SW 21:00:32 58° SSE 21:09:31 10° E visible
14 Sep - 22:55:42 10° W 23:04:58 76° S 23:14:13 10° E visible
15 Sep - 01:00:25 10° W 01:09:24 58° SSW 01:18:28 10° SE visible
15 Sep - 03:05:43 10° W 03:12:53 26° SW 03:20:08 10° S visible
15 Sep - 18:27:06 10° S 18:34:11 24° SE 18:41:08 10° E daylight
15 Sep - 20:28:32 10° SW 20:37:36 56° SSE 20:46:32 10° E visible
15 Sep - 22:32:43 10° W 22:42:00 76° S 22:51:14 10° E visible
16 Sep - 00:37:26 10° W 00:46:27 60° SSW 00:55:32 10° SE visible
16 Sep - 02:42:39 10° W 02:50:00 28° SW 02:57:27 10° S visible
16 Sep - 18:04:27 10° S 18:11:18 23° SE 18:18:02 10° E daylight
16 Sep - 20:05:37 10° SW 20:14:40 55° SSE 20:23:34 10° E visible
16 Sep - 22:09:44 10° W 22:19:02 76° S 22:28:16 10° E visible
17 Sep - 00:14:27 10° W 00:23:31 62° SSW 00:32:37 10° SE visible
17 Sep - 02:19:36 10° W 02:27:07 29° SW 02:34:43 10° SSE visible
17 Sep - 17:41:49 10° S 17:48:26 22° SE 17:54:56 10° E daylight
17 Sep - 19:42:43 10° SW 19:51:44 53° SSE 20:00:35 10° E visible
17 Sep - 21:46:45 10° W 21:56:03 76° S 22:05:17 10° E visible
17 Sep - 23:51:28 10° W 00:00:34 63° SSW 00:09:41 10° ESE visible
18 Sep - 01:56:33 10° W 02:04:14 31° SW 02:12:00 10° SSE visible
18 Sep - 17:19:14 10° S 17:25:34 20° SE 17:31:48 10° E daylight
18 Sep - 19:19:49 10° SW 19:28:48 51° SSE 19:37:37 10° E daylight
18 Sep - 21:23:46 10° WSW 21:33:06 75° S 21:42:19 10° E visible
18 Sep - 23:28:30 10° W 23:37:37 65° SSW 23:46:45 10° ESE visible
19 Sep - 01:33:31 10° W 01:41:21 32° SW 01:49:14 10° SSE visible
19 Sep - 16:56:40 10° S 17:02:42 19° SE 17:08:38 10° E daylight
19 Sep - 18:56:55 10° SW 19:05:52 49° SSE 19:14:38 10° E daylight
19 Sep - 21:00:47 10° WSW 21:10:08 75° S 21:19:20 10° E visible
19 Sep - 23:05:31 10° W 23:14:40 66° SSW 23:23:48 10° ESE visible
20 Sep - 01:10:29 10° W 01:18:27 34° SW 01:26:29 10° SSE visible
20 Sep - 16:34:08 10° SSE 16:39:51 18° SE 16:45:27 10° E daylight
20 Sep - 18:34:01 10° SW 18:42:56 47° SSE 18:51:39 10° E daylight
20 Sep - 20:37:48 10° WSW 20:47:10 74° S 20:56:22 10° E visible
20 Sep - 22:42:31 10° W 22:51:43 68° SSW 23:00:52 10° ESE visible
